Date,TemperatureHighF,TemperatureAvgF,TemperatureLowF,DewpointHighF,DewpointAvgF,DewpointLowF,HumidityHigh,HumidityAvg,HumidityLow,PressureMaxIn,PressureMinIn,WindSpeedMaxMPH,WindSpeedAvgMPH,GustSpeedMaxMPH,PrecipitationSumIn
2013-2-1,37.8,30.9,21.9,24.2,20.0,12.4,76,64,51,30.14,29.99,0,0,0,0.00
2013-2-2,36.9,24.9,15.8,17.8,13.1,7.5,75,61,40,30.17,30.08,0,0,0,0.00
2013-2-3,37.8,27.8,21.0,16.0,12.2,9.1,65,52,35,30.08,29.91,0,0,0,0.00
2013-2-4,37.9,26.5,17.6,16.7,12.0,7.3,71,55,40,29.96,29.91,0,0,0,0.00
2013-2-5,46.6,32.1,21.6,22.0,15.4,10.2,63,51,35,29.93,29.73,0,0,0,0.00
2013-2-6,37.9,31.0,18.1,19.9,14.6,7.7,65,51,41,29.91,29.70,0,0,0,0.00
2013-2-7,36.0,23.2,11.8,13.8,8.7,3.3,68,55,34,29.93,29.70,0,0,0,0.00
2013-2-8,38.1,29.3,23.4,24.6,17.4,10.4,76,61,43,29.70,29.49,0,0,0,0.00
2013-2-9,29.8,25.0,21.4,19.9,16.8,13.2,77,71,59,29.61,29.46,0,0,0,0.00
2013-2-10,28.8,21.7,15.3,14.8,12.4,4.9,76,67,52,29.73,29.61,0,0,0,0.00
2013-2-11,25.7,15.6,9.7,9.4,5.1,1.0,72,63,48,29.91,29.73,0,0,0,0.00
2013-2-12,28.0,19.5,7.9,14.5,8.3,-0.2,70,62,46,30.02,29.91,0,0,0,0.00
2013-2-13,34.7,28.1,21.2,20.5,17.1,13.4,75,64,51,30.02,29.93,0,0,0,0.00
2013-2-14,35.2,28.3,19.8,22.1,17.6,10.8,77,64,48,30.11,29.93,0,0,0,0.00
2013-2-15,36.3,28.0,20.8,18.1,15.8,11.3,75,60,44,30.17,30.11,0,0,0,0.00
2013-2-16,41.7,26.6,16.2,18.0,13.1,8.8,75,58,35,30.17,29.82,0,0,0,0.00
2013-2-17,35.8,27.6,16.2,19.7,12.1,4.7,62,52,42,29.82,29.67,0,0,0,0.00
2013-2-18,33.6,21.1,10.2,12.4,6.2,-0.2,65,53,40,29.85,29.73,0,0,0,0.00
2013-2-19,42.4,29.0,17.8,15.6,8.8,2.0,53,43,30,29.73,29.46,0,0,0,0.00
2013-2-20,40.5,30.3,25.9,23.5,16.1,8.3,83,57,40,29.55,29.43,0,0,0,0.00
2013-2-21,30.4,23.3,13.8,20.9,13.3,5.2,80,66,51,29.76,29.55,0,0,0,0.00
2013-2-22,30.9,21.5,13.8,15.8,10.4,5.6,73,62,48,29.82,29.73,0,0,0,0.00
2013-2-23,27.3,21.2,16.0,21.5,14.3,6.1,88,75,59,29.79,29.52,0,0,0,0.00
2013-2-24,28.9,20.1,10.6,13.5,9.1,0.8,76,62,46,29.93,29.70,0,0,0,0.00
2013-2-25,32.0,18.3,6.6,14.0,5.3,-3.0,68,57,41,29.93,29.73,0,0,0,0.00
2013-2-26,30.4,21.5,9.3,15.7,10.9,-1.9,74,63,48,29.99,29.76,0,0,0,0.00
2013-2-27,30.4,15.5,5.0,9.9,1.8,-5.8,62,55,42,30.08,29.99,0,0,0,0.00
2013-2-28,37.9,24.8,10.0,17.0,9.1,-0.4,64,52,37,30.17,30.08,0,0,0,0.00